When you browse on this site, cookies collect data to enhance your experience and personalize the content and advertising you see.
Visit our Privacy Policy to learn more. By continuing to use the site, you agree to this use of cookies and data.
  • In Latvia
  • List of Countries
  • For 7 days
  • Water Temperature
  • Weather Map
  • Weather Widgets
  • user-avatar
    Login

    Hourly Weather Sumgayit

    Today, 19 August, Monday

    Time Temperature Precipitation Wind Pressure Humidity
    00:00 +26°C° 0 mm 1 mps 737 mmHg 33%
    01:00 +25°C° 0 mm 1 mps 737 mmHg 34%
    02:00 +25°C° 0 mm 1 mps 737 mmHg 36%
    03:00 +25°C° 0 mm 1 mps 737 mmHg 34%
    04:00 +25°C° 0 mm 1 mps 738 mmHg 34%
    05:00 +26°C° 0 mm 1 mps 738 mmHg 34%
    06:00 +26°C° 0 mm 1 mps 739 mmHg 33%
    07:00 +28°C° 0 mm 1 mps 739 mmHg 30%
    08:00 +30°C° 0 mm 2 mps 739 mmHg 27%
    09:00 +34°C° 0 mm 3 mps 740 mmHg 24%
    10:00 +35°C° 0 mm 3 mps 740 mmHg 22%
    11:00 +36°C° 0 mm 4 mps 740 mmHg 20%
    12:00 +37°C° 0 mm 5 mps 740 mmHg 18%
    13:00 +36°C° 0 mm 5 mps 740 mmHg 18%
    14:00 +36°C° 0 mm 5 mps 740 mmHg 18%
    15:00 +36°C° 0 mm 5 mps 740 mmHg 18%
    16:00 +35°C° 0 mm 4 mps 739 mmHg 19%
    17:00 +34°C° 0 mm 4 mps 739 mmHg 21%
    18:00 +33°C° 0 mm 4 mps 739 mmHg 22%
    19:00 +31°C° 0 mm 3 mps 740 mmHg 24%
    20:00 +30°C° 0 mm 3 mps 740 mmHg 26%
    21:00 +29°C° 0 mm 3 mps 740 mmHg 27%
    22:00 +28°C° 0 mm 3 mps 740 mmHg 27%
    23:00 +28°C° 0 mm 3 mps 740 mmHg 27%

    Tomorrow, 20 August, Tuesday

    Time Temperature Precipitation Wind Pressure Humidity
    00:00 +28°C° 0 mm 3 mps 740 mmHg 26%
    01:00 +27°C° 0 mm 3 mps 740 mmHg 26%
    02:00 +27°C° 0 mm 3 mps 740 mmHg 25%
    03:00 +27°C° 0 mm 3 mps 740 mmHg 25%
    04:00 +27°C° 0 mm 3 mps 740 mmHg 25%
    05:00 +27°C° 0 mm 3 mps 741 mmHg 25%
    06:00 +27°C° 0 mm 3 mps 741 mmHg 26%
    07:00 +29°C° 0 mm 3 mps 741 mmHg 24%
    08:00 +31°C° 0 mm 3 mps 741 mmHg 23%
    09:00 +34°C° 0 mm 3 mps 741 mmHg 22%
    10:00 +35°C° 0 mm 3 mps 741 mmHg 20%
    11:00 +36°C° 0 mm 4 mps 741 mmHg 19%
    12:00 +37°C° 0 mm 4 mps 741 mmHg 18%
    13:00 +37°C° 0 mm 5 mps 741 mmHg 18%
    14:00 +37°C° 0 mm 5 mps 740 mmHg 17%
    15:00 +37°C° 0 mm 5 mps 740 mmHg 17%
    16:00 +36°C° 0 mm 4 mps 740 mmHg 18%
    17:00 +35°C° 0 mm 4 mps 740 mmHg 19%
    18:00 +34°C° 0 mm 3 mps 740 mmHg 19%
    19:00 +31°C° 0 mm 2 mps 740 mmHg 22%
    20:00 +30°C° 0 mm 1 mps 740 mmHg 24%
    21:00 +26°C° 0 mm 0 mps 740 mmHg 26%
    22:00 +26°C° 0 mm 0 mps 740 mmHg 26%
    23:00 +25°C° 0 mm 0 mps 740 mmHg 26%

    Day after tomorrow, 21 August, Wednesday

    Time Temperature Precipitation Wind Pressure Humidity
    00:00 +25°C° 0 mm 0 mps 739 mmHg 25%
    01:00 +24°C° 0 mm 0 mps 739 mmHg 26%
    02:00 +26°C° 0 mm 1 mps 739 mmHg 26%
    03:00 +25°C° 0 mm 1 mps 739 mmHg 27%
    04:00 +26°C° 0 mm 1 mps 739 mmHg 25%
    05:00 +27°C° 0 mm 1 mps 739 mmHg 24%
    06:00 +27°C° 0 mm 1 mps 739 mmHg 23%
    07:00 +30°C° 0 mm 1 mps 740 mmHg 20%
    08:00 +32°C° 0 mm 1 mps 740 mmHg 17%
    09:00 +34°C° 0 mm 1 mps 740 mmHg 14%
    10:00 +36°C° 0 mm 2 mps 740 mmHg 15%
    11:00 +37°C° 0 mm 3 mps 740 mmHg 15%
    12:00 +38°C° 0 mm 4 mps 739 mmHg 16%
    13:00 +39°C° 0 mm 5 mps 739 mmHg 16%
    14:00 +39°C° 0 mm 5 mps 739 mmHg 17%
    15:00 +39°C° 0 mm 5 mps 738 mmHg 17%
    16:00 +36°C° 0 mm 4 mps 738 mmHg 20%
    17:00 +35°C° 0 mm 4 mps 738 mmHg 23%
    18:00 +34°C° 0 mm 3 mps 738 mmHg 26%
    19:00 +31°C° 0 mm 2 mps 738 mmHg 28%
    20:00 +30°C° 0 mm 1 mps 738 mmHg 30%
    21:00 +29°C° 0 mm 1 mps 738 mmHg 32%
    22:00 +28°C° 0 mm 1 mps 738 mmHg 33%
    23:00 +28°C° 0 mm 1 mps 738 mmHg 35%

    22 August, Thursday

    Time Temperature Precipitation Wind Pressure Humidity
    00:00 +27°C° 0 mm 1 mps 738 mmHg 36%
    01:00 +27°C° 0 mm 1 mps 737 mmHg 37%
    02:00 +26°C° 0 mm 1 mps 737 mmHg 38%
    03:00 +25°C° 0 mm 1 mps 737 mmHg 40%
    04:00 +26°C° 0 mm 1 mps 737 mmHg 37%
    05:00 +27°C° 0 mm 1 mps 737 mmHg 35%
    06:00 +27°C° 0 mm 1 mps 737 mmHg 32%
    07:00 +30°C° 0 mm 1 mps 737 mmHg 28%
    08:00 +32°C° 0 mm 2 mps 737 mmHg 24%
    09:00 +35°C° 0 mm 2 mps 738 mmHg 20%
    10:00 +36°C° 0 mm 3 mps 737 mmHg 19%
    11:00 +37°C° 0 mm 3 mps 737 mmHg 18%
    12:00 +38°C° 0 mm 4 mps 737 mmHg 17%
    13:00 +38°C° 0 mm 4 mps 737 mmHg 16%
    14:00 +38°C° 0 mm 4 mps 736 mmHg 16%
    15:00 +39°C° 0 mm 5 mps 736 mmHg 16%
    16:00 +37°C° 0 mm 4 mps 736 mmHg 18%
    17:00 +36°C° 0 mm 4 mps 736 mmHg 20%
    18:00 +35°C° 0 mm 3 mps 736 mmHg 21%
    19:00 +34°C° 0 mm 2 mps 736 mmHg 24%
    20:00 +31°C° 0 mm 2 mps 736 mmHg 27%
    21:00 +30°C° 0 mm 1 mps 736 mmHg 30%
    22:00 +27°C° 0 mm 0 mps 736 mmHg 32%
    23:00 +26°C° 0 mm 0 mps 736 mmHg 34%

    23 August, Friday

    Time Temperature Precipitation Wind Pressure Humidity
    00:00 +26°C° 0 mm 0 mps 736 mmHg 35%
    01:00 +26°C° 0 mm 0 mps 736 mmHg 35%
    02:00 +27°C° 0 mm 1 mps 736 mmHg 35%
    03:00 +27°C° 0 mm 1 mps 736 mmHg 35%
    04:00 +28°C° 0 mm 1 mps 736 mmHg 33%
    05:00 +28°C° 0 mm 1 mps 736 mmHg 32%
    06:00 +29°C° 0 mm 1 mps 736 mmHg 30%
    07:00 +31°C° 0 mm 2 mps 737 mmHg 27%
    08:00 +34°C° 0 mm 3 mps 737 mmHg 25%
    09:00 +36°C° 0 mm 3 mps 737 mmHg 22%
    10:00 +36°C° 0 mm 4 mps 737 mmHg 21%
    11:00 +37°C° 0 mm 5 mps 737 mmHg 21%
    12:00 +39°C° 0 mm 6 mps 737 mmHg 20%
    13:00 +39°C° 0 mm 6 mps 737 mmHg 21%
    14:00 +39°C° 0 mm 6 mps 736 mmHg 21%
    15:00 +38°C° 0 mm 6 mps 736 mmHg 22%
    16:00 +36°C° 0 mm 5 mps 736 mmHg 23%
    17:00 +35°C° 0 mm 4 mps 736 mmHg 24%
    18:00 +34°C° 0 mm 3 mps 736 mmHg 25%
    19:00 +32°C° 0 mm 2 mps 736 mmHg 27%
    20:00 +31°C° 0 mm 2 mps 737 mmHg 30%
    21:00 +30°C° 0 mm 2 mps 737 mmHg 32%
    22:00 +30°C° 0 mm 3 mps 737 mmHg 33%
    23:00 +30°C° 0 mm 3 mps 737 mmHg 34%

    24 August, Saturday

    Time Temperature Precipitation Wind Pressure Humidity
    00:00 +30°C° 0 mm 4 mps 737 mmHg 34%
    01:00 +29°C° 0 mm 3 mps 737 mmHg 36%
    02:00 +28°C° 0 mm 3 mps 736 mmHg 38%
    03:00 +28°C° 0 mm 2 mps 736 mmHg 39%
    04:00 +28°C° 0 mm 2 mps 736 mmHg 39%
    05:00 +28°C° 0 mm 2 mps 737 mmHg 38%
    06:00 +28°C° 0 mm 2 mps 737 mmHg 38%
    07:00 +30°C° 0 mm 2 mps 737 mmHg 34%
    08:00 +32°C° 0 mm 2 mps 737 mmHg 30%
    09:00 +35°C° 0 mm 3 mps 738 mmHg 26%
    10:00 +35°C° 0 mm 3 mps 738 mmHg 24%
    11:00 +36°C° 0 mm 4 mps 737 mmHg 22%
    12:00 +37°C° 0 mm 5 mps 737 mmHg 20%
    13:00 +37°C° 0 mm 5 mps 737 mmHg 19%
    14:00 +36°C° 0 mm 5 mps 737 mmHg 17%
    15:00 +36°C° 0 mm 5 mps 737 mmHg 16%
    16:00 +35°C° 0 mm 5 mps 737 mmHg 17%
    17:00 +34°C° 0 mm 4 mps 737 mmHg 17%
    18:00 +34°C° 0 mm 4 mps 737 mmHg 18%
    19:00 +33°C° 0 mm 4 mps 737 mmHg 20%
    20:00 +31°C° 0 mm 3 mps 737 mmHg 21%
    21:00 +30°C° 0 mm 3 mps 738 mmHg 23%
    22:00 +29°C° 0 mm 4 mps 738 mmHg 24%
    23:00 +28°C° 0 mm 4 mps 738 mmHg 26%
    Show more